Columbus, OH

7:30 PM EDT on September 29, 2016 (GMT -0400)
Ohio State University

Weather History for KOSU - April, 2013

Change the Weather History Date:

Friday, April 26, 2013

  Actual Average Record
Temperature  
Mean Temperature 46 °F -  
Max Temperature 61 °F 64 °F 80 °F (2016)
Min Temperature 32 °F 41 °F 30 °F (2006)
Degree Days  
Heating Degree Days 19    
Moisture  
Dew Point 30 °F    
Average Humidity 53    
Maximum Humidity 89    
Minimum Humidity 30    
Precipitation  
Precipitation 0.00 in - - ()
Sea Level Pressure  
Sea Level Pressure 30.42 in    
Wind  
Wind Speed 2 mph (SSE)    
Max Wind Speed 8 mph    
Max Gust Speed -    
Visibility 10 miles    
Events      
Averages and records for this station are not official NWS values.
T = Trace of Precipitation, MM = Missing Value Source: NWS Daily Summary

Daily Weather History Graph

Daily Weather History Graph

Search for Another Location

Airport or City:

Trip Planner

Search our weather history database for the weather conditions in past years. The results will help you decide how hot, cold, wet, or windy it might be!

Date:

Astronomy

Apr. 26, 2013 Rise Set
Actual Time 6:38 AM EDT 8:22 PM EDT
Civil Twilight 6:09 AM EDT 8:51 PM EDT
Nautical Twilight 5:34 AM EDT 9:26 PM EDT
Astronomical Twilight 4:57 AM EDT 10:04 PM EDT
Moon 9:43 PM EDT (4/26) 7:04 AM EDT (4/26)
Length of Visible Light 14h 41m
Length of Day
13h 44m
Full, 99% of the Moon is Illuminated
Apr 26
Full
May 2
Last Quarter
May 9
New
May 18
First Quarter
May 25
Full

Hourly Weather History & Observations

Time (EDT) Temp. Windchill Dew Point Humidity Pressure Visibility Wind Dir Wind Speed Gust Speed Precip Events Conditions
12:53 AM 39.9 °F 36.7 °F 27.0 °F 60% 30.39 in 10.0 mi WNW 4.6 mph - N/A   Clear
1:53 AM 39.9 °F 36.7 °F 28.9 °F 65% 30.40 in 10.0 mi West 4.6 mph - N/A   Clear
3:53 AM 35.1 °F - 27.0 °F 72% 30.40 in 10.0 mi Calm Calm - N/A   Clear
4:53 AM 34.0 °F - 28.9 °F 82% 30.42 in 10.0 mi Calm Calm - N/A   Clear
5:53 AM 33.1 °F - 28.0 °F 82% 30.43 in 10.0 mi Calm Calm - N/A   Clear
6:53 AM 32.0 °F - 28.9 °F 88% 30.45 in 10.0 mi Calm Calm - N/A   Clear
7:53 AM 34.0 °F - 30.9 °F 89% 30.48 in 10.0 mi Calm Calm - N/A   Clear
8:53 AM 44.1 °F - 33.1 °F 65% 30.48 in 10.0 mi Calm Calm - N/A   Clear
9:53 AM 48.9 °F - 30.9 °F 50% 30.48 in 10.0 mi SE 4.6 mph - N/A   Clear
10:53 AM 51.1 °F - 30.0 °F 44% 30.48 in 10.0 mi SE 6.9 mph - N/A   Clear
11:53 AM 53.1 °F - 30.9 °F 43% 30.47 in 10.0 mi East 8.1 mph - N/A   Clear
1:53 PM 57.0 °F - 30.9 °F 37% 30.46 in 10.0 mi Calm Calm - N/A   Clear
2:53 PM 57.0 °F - 30.0 °F 36% 30.43 in 10.0 mi ESE 4.6 mph - N/A   Clear
3:53 PM 59.0 °F - 32.0 °F 36% 30.40 in 10.0 mi Variable 5.8 mph - N/A   Clear
4:53 PM 60.1 °F - 30.0 °F 32% 30.38 in 10.0 mi Calm Calm - N/A   Clear
5:53 PM 60.1 °F - 28.0 °F 30% 30.38 in 10.0 mi Calm Calm - N/A   Clear
6:53 PM 59.0 °F - 30.0 °F 33% 30.38 in 10.0 mi Variable 3.5 mph - N/A   Clear
7:53 PM 57.0 °F - 28.9 °F 34% 30.38 in 10.0 mi SSW 3.5 mph - N/A   Clear
8:53 PM 53.1 °F - 32.0 °F 45% 30.38 in 10.0 mi Calm Calm - N/A   Clear
9:53 PM 51.1 °F - 30.9 °F 46% 30.38 in 10.0 mi Calm Calm - N/A   Clear
10:53 PM 48.9 °F - 32.0 °F 52% 30.39 in 10.0 mi Calm Calm - N/A   Clear
11:53 PM 48.0 °F - 32.0 °F 54% 30.38 in 10.0 mi Calm Calm - N/A   Clear